Retour au catalogue

GALAXY 7

ActifCommunicationsGEO
NORAD 22205·PAYLOAD·🇺🇸 United States

Lancé Oct 28, 1992 depuis Guiana Space Centre

Loading…

TLE

FraisSource: Space-Track

Époque: Sep 14, 2026, 05:45 UTC

1 22205U 92072A   26257.24023991 -.00000252  00000-0  00000-0 0  9993
2 22205  14.5434   2.5982 0004265  52.0222 318.8790  0.99703911117778

Suivez GALAXY 7 en temps réel avec AllMySat

Download on the App Store